Overview Statistics Trail Chart Weather Telemetry Raw packets
 

This is the latest recevied weather packets stored in our database for station/object HP1COO-13. If no packets are shown the sender has not sent any weather packets the latest 10 day(s).

<< 43 44 45 46 47 48 49 >>
Time Temp. Humidity Pressure Rain* Wind** Luminosity Snow
1787955097 30° C 82% 1005.8 hPa 0 mm - - -
1787954463 30.56° C 81% 1005.6 hPa 0 mm - - -
1787953830 30.56° C 80% 1005.5 hPa 0 mm - - -
1787953197 30.56° C 80% 1005.6 hPa 0 mm - - -
1787952564 30.56° C 80% 1005.4 hPa 0 mm - - -
1787951931 31.11° C 78% 1005.5 hPa 0 mm - - -
1787951298 31.11° C 77% 1005.2 hPa 0 mm - - -
1787950665 31.67° C 78% 1005.1 hPa 0 mm - - -
1787950032 31.67° C 77% 1005.3 hPa 0 mm - - -
1787949399 31.67° C 77% 1005.6 hPa 0 mm - - -
1787948766 31.67° C 78% 1005.1 hPa 0 mm - - -
1787948133 31.67° C 77% 1005.4 hPa 0 mm - - -
1787947500 31.67° C 76% 1005.8 hPa 0 mm - - -
1787946867 31.67° C 76% 1005.6 hPa 0 mm - - -
1787946234 31.67° C 77% 1005.5 hPa 0 mm - - -
1787945601 31.67° C 76% 1005.3 hPa 0 mm - - -
1787944968 31.67° C 77% 1005.5 hPa 0 mm - - -
1787944335 31.67° C 76% 1005.7 hPa 0 mm - - -
1787943702 32.22° C 75% 1006 hPa 0 mm - - -
1787943069 32.22° C 75% 1006.2 hPa 0 mm - - -
1787942436 32.22° C 74% 1006.5 hPa 0 mm - - -
1787941803 32.78° C 72% 1006.8 hPa 0 mm - - -
1787941170 32.78° C 73% 1006.7 hPa 0 mm - - -
1787940537 32.78° C 73% 1006.9 hPa 0 mm - - -
1787939911 32.22° C 73% 1006.9 hPa 0 mm - - -

* Rain latest hour (hover to see other rain measurements)
** Current wind speed in m/s (hover to see current wind gust speed)